Regional Weather Roundup
Issued by NWS

Home | Current Version | Previous Version | Text Only | Print | Product List | Glossary Off
Versions: 1 2 3 4 5 6 7 8 9 10 11 12 13 14 15 16 17 18 19 20 21 22 23 24 25 26 27 28 29 30 31 32 33 34 35 36 37 38 39 40 41 42 43 44 45 46 47 48 49 50

000
ASUS43 KIND 041259
RWRIN

WEATHER ROUNDUP FOR INDIANA
NATIONAL WEATHER SERVICE INDIANAPOLIS IN
900 AM EDT MON MAY 04 2015

NOTE: "FAIR" INDICATES FEW OR NO CLOUDS BELOW 12,000 FEET WITH NO
SIGNIFICANT WEATHER AND/OR OBSTRUCTIONS TO VISIBILITY.

* - STATION DOES NOT REPORT WEATHER SUCH AS PRECIPITATION OR FOG.

+ - STATION NOT QUALITY CONTROLLED BY THE NATIONAL WEATHER SERVICE.
    USE DATA WITH CAUTION...ESPECIALLY DEWPOINT AND RELATIVE
    HUMIDITY OBSERVATIONS.

INZ001>003-010>013-019-020-041400-
NORTHWEST INDIANA

CITY           SKY/WX    TMP DP  RH WIND       PRES   REMARKS
GARY /AIRPORT/ CLOUDY    63 N/A N/A SW14      30.02R

$$

LMZ046-743>745-041400-
SOUTHERN LAKE MICHIGAN

STATION/POSITION TIME  TEMP    WIND        PRES    WAVE
                       AIR SEA DIR/SP/G            HT
                 (UTC) (F)     (DEG/KT/KT) (MB)    (FT)
BURNS HARBOR     1200   62     200/ 15/ 21 1016.6R
MICHIGAN CITY    1200   62     200/ 17/ 19   N/A
5NW MICH CITY    1200   56 49  230/ 10/ 14   N/A     1

$$

INZ004-005-014>016-021>024-041400-
NORTH CENTRAL INDIANA

CITY           SKY/WX    TMP DP  RH WIND       PRES   REMARKS
ELKHART        CLOUDY    63  48  59 SW13      30.06R
GOSHEN         CLOUDY    64  50  60 SW17      30.03R
SOUTH BEND     CLOUDY    63  53  70 SW14      30.05R

$$

INZ006>009-017-018-025>027-041400-
NORTHEAST INDIANA

CITY           SKY/WX    TMP DP  RH WIND       PRES   REMARKS
ANGOLA *+      MOSUNNY   66  52  59 SW16      30.03R
FORT WAYNE     CLOUDY    63  50  62 SW15      30.09R

$$

INZ028-029-035-036-043>045-051>053-041400-
WEST CENTRAL INDIANA

CITY           SKY/WX    TMP DP  RH WIND       PRES   REMARKS
GREENCASTLE +  CLOUDY    64  45  48 S7        30.12R
LAFAYETTE      LGT RAIN  58  56  93 SW3       30.12R
TERRE HAUTE    CLOUDY    65  50  58 SW10      30.11R

$$

INZ030>032-037>040-046>048-054>057-064-065-041400-
CENTRAL INDIANA

CITY           SKY/WX    TMP DP  RH WIND       PRES   REMARKS
ANDERSON       MOSUNNY   64  45  48 S12       30.13
GREENWOOD *+   PTSUNNY   68  50  52 S8        30.14R
INDIANAPOLIS   CLOUDY    66  51  58 SW10      30.11R
-EAGLE CREEK   CLOUDY    65  50  58 SW8       30.11R
MT COMFORT *+  PTSUNNY   64  41  42 SW12      30.12R
SHELBYVILLE    PTSUNNY   66  52  60 S12       30.13R

$$

INZ033-034-041-042-049-050-058-059-041400-
EAST CENTRAL INDIANA

CITY           SKY/WX    TMP DP  RH WIND       PRES   REMARKS
MUNCIE         PTSUNNY   67  48  50 SW12G23   30.10R

$$

INZ060-061-067>069-081>083-085>088-041400-
SOUTHWEST INDIANA

CITY           SKY/WX    TMP DP  RH WIND       PRES   REMARKS
EVANSVILLE     PTSUNNY   65  52  62 SW8       30.16R
HUNTINGBURG *+ PTSUNNY   64  52  63 S8        30.17R

$$

INZ062-063-066-070>080-084-089>092-041400-
SOUTH CENTRAL AND SOUTHEAST INDIANA

CITY           SKY/WX    TMP DP  RH WIND       PRES   REMARKS
BLOOMINGTON    CLOUDY    64  50  60 SW5       30.14R
MADISON *+     MOSUNNY   61  50  67 S3        30.20R
SEYMOUR +      PTSUNNY   66  54  63 S8        30.15R

$$




USA.gov is the U.S. government's official web portal to all federal, state and local government web resources and services.